Stuart, FL

12:41 AM EDT on August 25, 2016 (GMT -0400)
Witham

Weather History for KSUA - October, 2013

Change the Weather History Date:

Tuesday, October 29, 2013

  Actual Average Record
Temperature  
Mean Temperature 76 °F -  
Max Temperature 84 °F 82 °F 91 °F (1951)
Min Temperature 68 °F 66 °F 50 °F (2008)
Cooling Degree Days 11    
Growing Degree Days 26 (Base 50)    
Moisture  
Dew Point 61 °F    
Average Humidity 61    
Maximum Humidity 88    
Minimum Humidity 37    
Precipitation  
Precipitation 0.00 in - - ()
Sea Level Pressure  
Sea Level Pressure 30.17 in    
Wind  
Wind Speed 5 mph (NE)    
Max Wind Speed 15 mph    
Max Gust Speed 21 mph    
Visibility 10 miles    
Events      
Averages and records for this station are not official NWS values.
T = Trace of Precipitation, MM = Missing Value Source: NWS Daily Summary

Daily Weather History Graph

Daily Weather History Graph

Search for Another Location

Airport or City:

Trip Planner

Search our weather history database for the weather conditions in past years. The results will help you decide how hot, cold, wet, or windy it might be!

Date:

Astronomy

Oct. 29, 2013 Rise Set
Actual Time 7:29 AM EDT 6:39 PM EDT
Civil Twilight 7:05 AM EDT 7:03 PM EDT
Nautical Twilight 6:37 AM EDT 7:30 PM EDT
Astronomical Twilight 6:10 AM EDT 7:58 PM EDT
Moon 2:44 AM EDT (10/29) 3:28 PM EDT (10/29)
Length of Visible Light 11h 58m
Length of Day
11h 10m
Waning Crescent, 25% of the Moon is Illuminated
Oct 29
Waning Crescent
Nov 3
New
Nov 10
First Quarter
Nov 17
Full
Nov 25
Last Quarter

Hourly Weather History & Observations

Time (EDT) Temp. Heat Index Dew Point Humidity Pressure Visibility Wind Dir Wind Speed Gust Speed Precip Events Conditions
12:15 AM 73.4 °F - 60.8 °F 65% 30.16 in 10.0 mi NE 4.6 mph - N/A   Clear
12:35 AM 75.2 °F - 60.8 °F 61% 30.16 in 10.0 mi NNE 3.5 mph - N/A   Scattered Clouds
12:55 AM 75.2 °F - 60.8 °F 61% 30.16 in 10.0 mi NE 4.6 mph - N/A   Clear
1:15 AM 73.4 °F - 60.8 °F 65% 30.16 in 10.0 mi NNE 3.5 mph - N/A   Clear
1:35 AM 71.6 °F - 60.8 °F 69% 30.15 in 10.0 mi Calm Calm - N/A   Clear
1:55 AM 69.8 °F - 60.8 °F 73% 30.15 in 10.0 mi Calm Calm - N/A   Clear
2:15 AM 69.8 °F - 62.6 °F 78% 30.15 in 10.0 mi NW 3.5 mph - N/A   Mostly Cloudy
2:35 AM 71.6 °F - 62.6 °F 73% 30.13 in 10.0 mi Calm Calm - N/A   Overcast
2:55 AM 71.6 °F - 62.6 °F 73% 30.13 in 10.0 mi Calm Calm - N/A   Mostly Cloudy
3:15 AM 69.8 °F - 62.6 °F 78% 30.13 in 10.0 mi NW 3.5 mph - N/A   Scattered Clouds
3:35 AM 69.8 °F - 62.6 °F 78% 30.13 in 10.0 mi NW 3.5 mph - N/A   Scattered Clouds
3:55 AM 69.8 °F - 62.6 °F 78% 30.12 in 10.0 mi WNW 3.5 mph - N/A   Scattered Clouds
4:15 AM 71.6 °F - 62.6 °F 73% 30.12 in 10.0 mi Calm Calm - N/A   Scattered Clouds
4:35 AM 69.8 °F - 62.6 °F 78% 30.12 in 10.0 mi Calm Calm - N/A   Clear
4:55 AM 69.8 °F - 62.6 °F 78% 30.13 in 10.0 mi WNW 4.6 mph - N/A   Clear
5:15 AM 68.0 °F - 62.6 °F 83% 30.13 in 10.0 mi WNW 4.6 mph - N/A   Scattered Clouds
6:47 AM 68.0 °F - 64.4 °F 88% 30.16 in 7.0 mi Calm Calm - N/A   Scattered Clouds
7:47 AM 68.0 °F - 64.4 °F 88% 30.17 in 7.0 mi Calm Calm - N/A   Mostly Cloudy
8:47 AM 75.2 °F - 66.2 °F 73% 30.19 in 10.0 mi Calm Calm - N/A   Mostly Cloudy
9:47 AM 82.4 °F 83.4 °F 62.6 °F 51% 30.20 in 10.0 mi ENE 9.2 mph - N/A   Scattered Clouds
10:47 AM 82.4 °F 82.9 °F 60.8 °F 48% 30.21 in 7.0 mi East 12.7 mph - N/A   Mostly Cloudy
11:47 AM 84.2 °F 83.8 °F 59.0 °F 42% 30.21 in 7.0 mi North - - N/A   Mostly Cloudy
12:47 PM 84.2 °F 83.5 °F 57.2 °F 40% 30.19 in 7.0 mi North - - N/A   Mostly Cloudy
2:47 PM 84.2 °F 83.0 °F 55.4 °F 37% 30.14 in 10.0 mi ENE 12.7 mph 19.6 mph N/A   Scattered Clouds
3:47 PM 84.2 °F 83.0 °F 55.4 °F 37% 30.14 in 10.0 mi ENE 11.5 mph 20.7 mph N/A   Scattered Clouds
4:47 PM 82.4 °F 81.7 °F 55.4 °F 39% 30.14 in 10.0 mi NE 12.7 mph - N/A   Scattered Clouds
5:47 PM 82.4 °F 81.4 °F 53.6 °F 37% 30.15 in 7.0 mi NE 10.4 mph - N/A   Scattered Clouds
6:47 PM 78.8 °F - 57.2 °F 47% 30.16 in 7.0 mi NE 8.1 mph - N/A   Scattered Clouds
8:15 PM 78.8 °F - 59.0 °F 51% 30.18 in 10.0 mi East 9.2 mph - N/A   Scattered Clouds
8:35 PM 78.8 °F - 60.8 °F 54% 30.18 in 10.0 mi NE 12.7 mph - N/A   Mostly Cloudy
8:55 PM 77.0 °F - 64.4 °F 65% 30.19 in 10.0 mi East 10.4 mph 16.1 mph N/A   Overcast
9:15 PM 77.0 °F - 62.6 °F 61% 30.19 in 10.0 mi East 11.5 mph - N/A   Overcast
9:35 PM 78.8 °F - 60.8 °F 54% 30.20 in 10.0 mi East 15.0 mph - N/A   Overcast
9:55 PM 78.8 °F - 62.6 °F 57% 30.20 in 10.0 mi East 13.8 mph - N/A   Overcast
10:15 PM 78.8 °F - 60.8 °F 54% 30.20 in 10.0 mi East 11.5 mph 19.6 mph N/A   Overcast
10:35 PM 78.8 °F - 59.0 °F 51% 30.20 in 10.0 mi East 12.7 mph 18.4 mph N/A   Overcast
10:55 PM 78.8 °F - 59.0 °F 51% 30.20 in 10.0 mi East 12.7 mph 16.1 mph N/A   Overcast
11:15 PM 78.8 °F - 59.0 °F 51% 30.20 in 10.0 mi East 12.7 mph - N/A   Overcast
11:35 PM 78.8 °F - 59.0 °F 51% 30.20 in 10.0 mi East 13.8 mph 17.3 mph N/A   Overcast
11:55 PM 78.8 °F - 59.0 °F 51% 30.20 in 10.0 mi East 12.7 mph 17.3 mph N/A   Overcast